Total_Precipitation_Accumulation
2.28 2.56 3.41 4.33 4.92 3.76 2.75 2.28 1.99 1.76 1.43 1.07 0.86 0.87 1.19 1.65 1.97 2.02 1.88 1.68 1.06 0.97 1.06 1.49 1.79 1.70 1.58 1.51 1.49 1.50 1.46 1.42 1.44 1.46 1.44 1.33 1.44 1.56 1.57 1.50 1.42 1.43 1.33 1.27 1.25 1.28 1.36 1.26 1.27
1.98 2.75 3.97 4.90 4.18 2.93 2.52 2.07 1.83 1.56 1.19 0.88 0.75 0.66 0.76 0.63 0.61 1.08 1.99 1.92 1.07 0.84 0.97 1.35 1.85 1.77 1.70 1.67 1.65 1.68 1.56 1.39 1.34 1.29 1.27 1.27 1.38 1.48 1.58 1.61 1.50 1.52 1.44 1.29 1.22 1.20 1.29 1.28 1.31
2.28 3.18 4.41 4.48 3.16 2.46 2.43 1.89 1.43 1.05 0.78 0.83 0.83 0.70 0.75 0.88 1.00 1.48 1.89 1.37 0.98 0.86 0.95 1.47 1.98 1.80 1.70 1.69 1.79 1.75 1.58 1.41 1.28 1.21 1.23 1.27 1.39 1.51 1.56 1.46 1.44 1.52 1.51 1.42 1.41 1.36 1.40 1.39 1.45
2.54 3.63 4.00 3.40 2.59 2.00 1.74 1.48 1.14 0.98 0.70 0.48 0.64 0.82 0.73 0.97 1.15 1.37 1.33 0.96 0.75 0.76 0.86 1.33 1.91 1.77 1.64 1.58 1.73 1.64 1.51 1.50 1.37 1.28 1.31 1.39 1.54 1.74 1.72 1.57 1.56 1.54 1.55 1.46 1.47 1.46 1.49 1.52 1.53
2.80 3.59 3.58 3.21 2.41 2.07 1.55 1.22 1.02 0.99 0.80 0.54 0.54 0.84 0.95 1.27 1.26 1.25 1.16 0.96 0.75 0.76 0.81 1.11 1.65 1.64 1.53 1.49 1.57 1.53 1.52 1.53 1.38 1.30 1.33 1.40 1.50 1.73 1.88 1.80 1.73 1.68 1.63 1.53 1.47 1.47 1.44 1.46 1.54
3.21 3.29 3.38 3.17 2.60 2.28 1.77 1.29 0.94 0.86 0.73 0.59 0.58 0.86 1.17 1.59 1.47 1.42 1.22 1.12 0.98 0.86 0.77 0.91 1.41 1.51 1.42 1.44 1.47 1.45 1.44 1.38 1.26 1.27 1.33 1.34 1.41 1.57 1.74 1.78 1.78 1.73 1.62 1.61 1.59 1.58 1.49 1.49 1.46
2.98 2.94 2.69 2.29 2.44 2.56 1.84 1.16 1.07 1.01 0.95 0.82 0.60 0.89 1.25 1.70 1.57 1.28 1.26 1.32 1.39 1.23 1.03 0.98 1.09 1.18 1.25 1.36 1.41 1.54 1.60 1.42 1.25 1.18 1.20 1.22 1.24 1.35 1.46 1.56 1.61 1.59 1.57 1.58 1.55 1.53 1.55 1.58 1.49
2.42 2.48 2.26 2.20 2.43 2.59 1.59 1.02 0.86 0.84 0.88 0.58 0.50 0.81 1.06 1.31 1.41 1.35 1.30 1.36 1.33 1.27 1.20 1.12 1.13 1.10 1.07 1.16 1.42 1.70 1.79 1.63 1.37 1.22 1.14 1.19 1.18 1.21 1.34 1.36 1.55 1.63 1.62 1.66 1.68 1.62 1.56 1.62 1.58
2.07 2.40 2.46 2.40 2.32 2.05 1.25 0.94 0.74 0.54 0.57 0.51 0.41 0.61 0.80 0.83 1.09 1.29 1.28 1.29 1.25 1.18 1.20 1.13 1.13 1.16 1.23 1.25 1.37 1.70 1.85 1.81 1.41 1.16 1.14 1.07 0.96 1.06 1.16 1.18 1.56 1.74 1.85 1.86 1.85 1.73 1.62 1.55 1.53
2.12 2.34 2.22 1.79 1.57 1.29 0.99 0.86 0.70 0.72 0.82 0.71 0.54 0.62 0.77 0.83 0.95 1.16 1.19 1.09 1.03 1.01 1.03 1.05 1.04 1.01 1.03 1.06 1.42 1.68 1.54 1.60 1.28 1.19 1.10 1.05 1.12 1.14 0.99 1.06 1.46 1.71 1.87 1.86 1.79 1.74 1.57 1.34 1.19
1.79 1.91 1.58 1.35 1.14 0.93 0.87 0.81 0.62 0.74 0.93 0.73 0.55 0.62 0.76 0.86 0.97 1.02 1.08 1.01 0.92 0.89 0.81 0.78 0.84 0.80 0.80 0.91 1.08 1.38 1.60 1.61 1.53 1.44 1.33 1.29 1.21 1.04 0.97 1.05 1.16 1.35 1.46 1.42 1.51 1.49 1.36 1.22 1.15
1.56 1.49 1.29 1.16 0.86 0.90 0.90 0.76 0.67 0.66 0.70 0.51 0.46 0.52 0.69 0.87 1.00 0.97 0.99 1.00 0.91 0.94 0.93 0.76 0.70 0.70 0.69 0.74 0.88 1.12 1.30 1.40 1.39 1.29 1.17 1.35 1.31 1.10 1.04 1.19 1.30 1.35 1.42 1.59 1.62 1.55 1.42 1.28 1.16
1.44 1.49 1.20 0.99 0.85 0.90 0.84 0.77 0.66 0.67 0.56 0.44 0.44 0.58 0.79 0.98 1.04 1.02 0.96 0.97 0.97 0.96 1.01 0.89 0.71 0.66 0.69 0.73 0.79 0.85 1.04 1.13 1.13 1.25 1.17 1.21 1.22 1.11 1.06 1.12 1.35 1.41 1.45 1.67 1.76 1.58 1.49 1.48 1.41
1.26 1.21 1.16 0.99 0.91 0.93 0.94 0.77 0.66 0.78 0.67 0.57 0.62 0.74 0.90 1.00 1.00 0.96 0.88 0.85 0.86 0.87 0.91 0.86 0.76 0.74 0.74 0.72 0.67 0.68 0.70 0.85 0.87 0.87 0.82 1.01 1.16 1.15 1.18 1.12 1.26 1.50 1.58 1.64 1.67 1.60 1.51 1.46 1.46
1.05 1.13 1.26 1.16 1.11 1.07 0.96 1.03 0.80 0.81 0.80 0.68 0.67 0.74 0.94 0.91 0.89 0.86 0.78 0.71 0.66 0.73 0.77 0.81 0.82 0.81 0.79 0.80 0.77 0.72 0.71 0.75 0.81 0.87 0.85 0.95 1.08 1.17 1.17 1.08 1.16 1.39 1.62 1.68 1.66 1.61 1.61 1.43 1.33
1.21 1.50 1.75 1.42 1.21 1.18 1.09 1.23 0.89 0.88 0.83 0.73 0.70 0.69 0.77 0.69 0.68 0.70 0.66 0.60 0.56 0.56 0.61 0.68 0.69 0.74 0.78 0.82 0.86 0.80 0.82 0.83 0.80 0.84 0.83 0.84 0.99 1.15 1.25 1.19 1.16 1.34 1.59 1.84 1.98 1.83 1.74 1.60 1.48
1.54 1.64 1.57 1.47 1.16 1.17 1.10 1.14 0.96 0.82 0.78 0.68 0.67 0.67 0.64 0.57 0.54 0.57 0.56 0.52 0.45 0.44 0.43 0.49 0.56 0.63 0.70 0.78 0.87 0.84 0.84 0.98 1.03 0.92 0.81 0.85 0.97 1.07 1.30 1.42 1.36 1.41 1.62 1.76 1.84 1.88 1.74 1.70 1.61
1.25 1.24 1.24 1.33 1.10 1.02 0.99 0.92 0.93 0.77 0.63 0.58 0.57 0.58 0.54 0.51 0.44 0.45 0.47 0.48 0.43 0.40 0.38 0.40 0.48 0.52 0.53 0.66 0.84 0.93 0.87 0.93 1.13 1.17 1.17 1.20 1.24 1.27 1.44 1.57 1.59 1.60 1.72 1.75 1.93 2.15 1.96 1.75 1.70
0.92 0.92 0.97 0.90 0.76 0.87 0.89 0.82 0.86 0.80 0.65 0.52 0.49 0.53 0.49 0.46 0.46 0.39 0.37 0.44 0.43 0.37 0.34 0.38 0.44 0.47 0.48 0.57 0.71 0.80 0.88 1.04 1.24 1.29 1.36 1.50 1.50 1.51 1.64 1.76 1.82 1.79 1.74 1.84 2.04 2.44 2.33 1.97 1.75
0.84 0.83 0.87 0.77 0.66 0.70 0.80 0.84 0.82 0.74 0.67 0.56 0.48 0.41 0.39 0.39 0.37 0.32 0.31 0.34 0.36 0.35 0.33 0.33 0.41 0.52 0.57 0.61 0.74 0.89 1.11 1.23 1.37 1.52 1.51 1.53 1.58 1.62 1.71 1.92 2.04 2.01 2.02 2.12 2.18 2.46 2.63 2.36 2.14
0.82 0.76 0.70 0.73 0.69 0.69 0.74 0.94 0.88 0.80 0.66 0.55 0.46 0.37 0.30 0.34 0.32 0.25 0.27 0.29 0.31 0.32 0.39 0.39 0.48 0.68 0.87 0.95 1.16 1.43 1.68 1.75 1.69 1.69 1.75 1.73 1.75 1.81 1.78 1.90 2.10 2.11 2.11 2.18 2.37 2.69 3.01 2.94 2.64
0.83 0.58 0.51 0.63 0.76 0.87 0.71 1.00 0.85 0.78 0.70 0.54 0.46 0.41 0.33 0.36 0.39 0.30 0.29 0.32 0.29 0.34 0.46 0.63 0.82 1.11 1.34 1.45 1.62 1.84 1.94 1.97 1.90 1.91 1.92 1.91 1.81 1.73 1.72 1.84 2.04 2.20 2.33 2.45 2.52 2.53 2.92 3.20 2.99
0.65 0.53 0.52 0.62 0.73 0.76 0.64 0.77 0.73 0.63 0.70 0.61 0.55 0.49 0.44 0.44 0.43 0.43 0.42 0.47 0.49 0.59 0.80 1.13 1.38 1.59 1.71 1.75 1.80 1.99 2.13 2.28 2.29 2.19 2.05 1.95 1.91 1.84 1.73 1.77 1.83 1.89 2.00 2.17 2.31 2.39 2.64 2.85 3.00
0.54 0.60 0.63 0.65 0.74 0.86 0.60 0.61 0.73 0.60 0.58 0.61 0.62 0.54 0.49 0.46 0.47 0.57 0.70 0.84 0.92 1.01 1.21 1.44 1.59 1.74 1.71 1.67 1.70 1.82 2.00 2.16 2.18 2.22 2.19 2.06 1.93 1.82 1.71 1.64 1.72 1.74 1.75 1.91 2.04 2.15 2.43 2.64 2.77
0.59 0.77 0.97 0.98 0.96 0.82 0.50 0.60 0.63 0.44 0.42 0.50 0.56 0.55 0.51 0.47 0.56 0.76 0.93 1.09 1.19 1.29 1.40 1.44 1.42 1.49 1.52 1.48 1.48 1.55 1.63 1.66 1.70 1.82 1.75 1.63 1.52 1.46 1.44 1.36 1.40 1.52 1.57 1.76 1.85 1.80 1.88 2.07 2.29
0.54 0.59 0.85 0.95 0.85 0.72 0.55 0.73 0.65 0.46 0.43 0.42 0.46 0.54 0.61 0.71 0.83 0.95 1.06 1.18 1.22 1.34 1.40 1.35 1.32 1.31 1.26 1.20 1.21 1.21 1.25 1.32 1.32 1.33 1.28 1.20 1.16 1.14 1.10 1.10 1.11 1.16 1.23 1.45 1.67 1.68 1.68 1.74 1.84
0.46 0.45 0.48 0.65 0.63 0.67 0.62 0.72 0.65 0.45 0.42 0.41 0.43 0.53 0.67 0.84 1.08 1.26 1.26 1.17 1.10 1.15 1.22 1.21 1.16 1.10 1.03 0.97 0.99 1.00 1.06 1.10 1.07 1.02 0.96 0.94 0.87 0.87 0.85 0.89 1.00 1.06 1.04 1.13 1.27 1.46 1.53 1.60 1.68
0.36 0.40 0.49 0.73 0.85 0.86 0.72 0.79 0.74 0.56 0.50 0.47 0.51 0.63 0.80 0.95 1.16 1.44 1.55 1.43 1.17 1.00 1.03 1.01 0.99 1.02 1.01 0.97 0.99 0.96 0.87 0.80 0.79 0.80 0.73 0.71 0.76 0.78 0.78 0.77 0.81 0.89 0.90 0.98 1.10 1.16 1.27 1.36 1.52
0.37 0.42 0.52 0.67 0.68 0.91 1.15 1.13 0.84 0.73 0.67 0.66 0.70 0.76 0.84 1.08 1.38 1.50 1.52 1.39 1.22 0.96 0.90 0.90 0.87 0.89 0.96 0.90 0.93 0.93 0.81 0.68 0.63 0.59 0.54 0.55 0.58 0.62 0.63 0.66 0.75 0.78 0.80 0.81 0.82 0.86 0.94 1.02 1.13
0.33 0.41 0.56 0.83 0.84 0.79 1.01 1.05 0.67 0.71 0.82 0.76 0.83 0.91 0.95 1.03 1.07 1.06 1.15 1.15 1.08 0.96 0.89 0.96 0.99 0.99 0.92 0.84 0.83 0.82 0.75 0.66 0.65 0.58 0.50 0.52 0.58 0.60 0.60 0.65 0.69 0.69 0.75 0.78 0.76 0.76 0.80 0.92 1.00